[[{"header":{"parameterUnit":"m.s-1","parameterCategory":1,"la1":30.2991,"la2":30.254,"lo1":-89.0895,"lo2":-89.0444,"dy":0.0017,"dx":0.0017,"nx":28,"ny":28,"refTime":"2025-05-26T21:00:00:Z","depth":0,"parameterNumber":2,"parameterNumberName":"U-component_of_WINDS"},"data":[0,0,0,0,0,0,0,0,0,0,0,0,0,0,0,0,0,0,0,0,0,0,0,0,0,0,0,0,0,0,0,0,0,0,0,0,0,0,0,0,0,0,0,0,0,0,0,0,0,0,0,0,0,0,0,0,0,0,0.9016,0.9016,0,0.9013,0.9013,0.9013,0.9017,0.9017,0.9017,0.9017,0.9014,0.9014,0.9013,0,0,0,0,0,0,0,0,0,0,0,0,0,0.9022,0.9022,0.9016,0.9016,0.9016,0.9013,0.9013,0.9013,0.9017,0.9017,0.9017,0.9017,0.9014,0.9014,0.9013,0,0,0,0,0,0,0,0,0,0,0,0,0,0.9019,0.9022,0.9016,0.9017,0.9017,0.9013,0.9013,0.9013,0.9017,0.9017,0.9017,0.9017,0.9014,0.9014,0.9013,0.9008,0,0,0.9012,0.9012,0,0,0,0,0,0,0,0,0.9019,0.9019,0.9017,0.9017,0.9017,0.9016,0.9014,0.9012,0.9017,0.9017,0.9017,0.9017,0.9014,0.9014,0.9013,0.9008,0.9008,0.9012,0.9012,0.9012,0.9012,0,0,0,0,0,0,0,0.902,0.9019,0.9015,0.9017,0.9017,0.9017,0.9017,0.9014,0.9014,0.9017,0.9017,0.9017,0.9014,0.9013,0.9013,0.9008,0.9012,0.9012,0.9012,0.9012,0.8998,0.8998,0,0,0,0,0,0,0.902,0.9019,0.9015,0.9015,0.9019,0.9017,0.9017,0.9016,0.9015,0.9015,0.9017,0.9017,0.9014,0.9013,0.9013,0.9007,0.9012,0.9012,0.9012,0.8998,0.8998,0.8998,0,0,0,0,0,0,0.902,0.9019,0.9015,0.9017,0.9017,0.9017,0.9015,0.9016,0.9015,0.9014,0.9014,0.9016,0.9014,0.9013,0.9009,0.9007,0.9012,0.9011,0.8999,0.8998,0.8998,0.8995,0,0,0,0,0,0,0.902,0.9019,0.9017,0.9017,0.9016,0.9012,0.9015,0.9015,0.9014,0.9015,0.9013,0.9013,0.9014,0.901,0.9009,0.9006,0.9011,0.8999,0.8999,0.8998,0.8995,0.8994,0.8994,0,0,0,0,0,0.902,0.9016,0.9017,0.9017,0.9014,0.9011,0.9011,0.9012,0.9014,0.9012,0.9012,0.9013,0.9007,0.9009,0.9009,0.9006,0.8999,0.8999,0.8998,0.8995,0.8994,0.8994,0,0,0,0,0,0,0.9016,0.9016,0.9017,0.9013,0.9012,0.9012,0.901,0.9011,0.9009,0.901,0.9011,0.901,0.9006,0.9005,0.9008,0.9001,0.9003,0.9003,0.9001,0.9001,0.9,0.9,0.9011,0,0,0,0,0,0.9015,0.9013,0.9013,0.9009,0.9009,0.9009,0.9008,0.9009,0.9008,0.9007,0.9007,0.9006,0.9003,0.9002,0.9,0.8995,0.8995,0.8992,0.8992,0.8991,0.8991,0.8988,0.8987,0.8997,0.8997,0.8997,0,0,0.9012,0.9012,0.901,0.9008,0.9008,0.9006,0.9009,0.9006,0.9005,0.9007,0.9003,0.9003,0.9002,0.8997,0.8995,0.8997,0.8988,0.8991,0.899,0.899,0.8988,0.8987,0.8986,0.8996,0.8996,0.8996,0,0,0.9006,0.9005,0.9002,0.9002,0.9001,0.9001,0.9001,0.9,0.9,0.8997,0.8998,0.8996,0.8992,0.8991,0.899,0.8984,0.8985,0.8983,0.8979,0.8977,0.8976,0.8976,0.8974,0.8973,0.8982,0.8982,0.8982,0,0.9002,0.8999,0.9001,0.8998,0.8997,0.8999,0.8996,0.8996,0.8994,0.8993,0.8995,0.899,0.8989,0.8985,0.8983,0.8982,0.8981,0.8983,0.8976,0.8976,0.8975,0.8973,0.8972,0.8982,0.8982,0.8982,0.8982,0,0.8995,0.8993,0.8991,0.899,0.8988,0.8986,0.8986,0.8985,0.8986,0.8986,0.8982,0.8981,0.8979,0.8978,0.8979,0.8974,0.8975,0.8976,0.8979,0.8974,0.8972,0.8971,0.8982,0.8982,0.8982,0.8982,0,0,0.8987,0.8986,0.8985,0.8985,0.8984,0.8983,0.898,0.8978,0.8977,0.8976,0.8973,0.897,0.8971,0.897,0.8971,0.8969,0.8964,0.8971,0.897,0.897,0.8959,0.8958,0.8957,0.8965,0.8965,0.8964,0.8959,0,0.8981,0.8976,0.8977,0.8973,0.8971,0.8973,0.8971,0.897,0.897,0.8968,0.8968,0.8966,0.8968,0.8967,0.8965,0.8965,0.8962,0.8965,0.8963,0.8963,0.8963,0.8956,0.8955,0.8949,0.8958,0.8958,0.8958,0,0.8973,0.8972,0.8968,0.8967,0.8967,0.8965,0.8963,0.8961,0.896,0.8961,0.8959,0.896,0.8958,0.896,0.8956,0.8959,0.8958,0.8957,0.8957,0.8957,0.896,0.8956,0.8948,0.8947,0.8957,0.8957,0.8957,0,0.8968,0.8965,0.8962,0.8962,0.8961,0.896,0.8959,0.8959,0.8958,0.8956,0.8956,0.8954,0.8953,0.8951,0.8952,0.8953,0.8948,0.895,0.8948,0.8948,0.8946,0.8947,0.8938,0.8945,0.8945,0.8945,0.8945,0,0.8961,0.8958,0.896,0.8958,0.8955,0.8956,0.8953,0.8953,0.8952,0.895,0.8952,0.895,0.895,0.8948,0.8949,0.8945,0.8945,0.8945,0.8945,0.8945,0.8945,0.8944,0.8945,0.8945,0.8945,0.8945,0.8945,0,0.8955,0.8955,0.8952,0.8952,0.8952,0.895,0.895,0.8948,0.8948,0.8946,0.8945,0.8945,0.8943,0.8944,0.8941,0.8941,0.8937,0.8938,0.8938,0.8938,0.8935,0.8936,0.8927,0.8926,0.8933,0.8933,0.8933,0,0.895,0.8948,0.8948,0.8947,0.8947,0.8945,0.8944,0.8945,0.8944,0.8943,0.8941,0.894,0.8938,0.8935,0.8934,0.8932,0.8933,0.893,0.8933,0.8933,0.8933,0.8933,0.8933,0.8929,0.8929,0.8929,0.8929,0,0.8943,0.8944,0.8942,0.8941,0.894,0.8939,0.8938,0.8937,0.8938,0.8937,0.8935,0.8934,0.8932,0.893,0.8928,0.8927,0.8928,0.8928,0.8928,0.8928,0.8928,0.8928,0.8937,0.8929,0.8929,0.8929,0.8929,0.8929,0.8938,0.8936,0.8936,0.8935,0.8934,0.8933,0.8932,0.8932,0.893,0.8929,0.8929,0.8927,0.8926,0.8924,0.8923,0.8922,0.8923,0.8922,0.8921,0.8921,0.8921,0.8928,0.8921,0.8921,0.8921,0.8921,0.8921,0,0.8931,0.8931,0.8929,0.8928,0.8927,0.8929,0.8928,0.8927,0.8925,0.8924,0.8923,0.8921,0.8919,0.8919,0.8917,0.8915,0.8916,0.8915,0.8915,0.8915,0.892,0.8921,0.8915,0.8915,0.8915,0.8915,0.8915,0.8915,0.8927,0.8925,0.8925,0.8922,0.8922,0.892,0.892,0.8919,0.8919,0.8916,0.8915,0.8915,0.8914,0.8912,0.8911,0.8911,0.891,0.8909,0.8909,0.8914,0.8915,0.8915,0.8916,0.8909,0.8909,0.8904,0.8904,0.8904]},{"header":{"parameterUnit":"m.s-1","parameterCategory":1,"la1":30.2991,"la2":30.254,"lo1":-89.0895,"lo2":-89.0444,"dy":0.0017,"dx":0.0017,"nx":28,"ny":28,"refTime":"2025-05-26T21:00:00:Z","depth":0,"parameterNumber":3,"parameterNumberName":"V-component_of_WINDS"},"data":[0,0,0,0,0,0,0,0,0,0,0,0,0,0,0,0,0,0,0,0,0,0,0,0,0,0,0,0,0,0,0,0,0,0,0,0,0,0,0,0,0,0,0,0,0,0,0,0,0,0,0,0,0,0,0,0,0,0,4.9672,4.9672,0,4.9678,4.9678,4.9678,4.97,4.9701,4.9701,4.9702,4.9703,4.9703,4.9702,0,0,0,0,0,0,0,0,0,0,0,0,0,4.9677,4.9676,4.9672,4.9672,4.9672,4.9678,4.9678,4.9678,4.97,4.9701,4.9701,4.9702,4.9703,4.9703,4.9702,0,0,0,0,0,0,0,0,0,0,0,0,0,4.9678,4.9676,4.9672,4.9684,4.9685,4.9678,4.9678,4.9678,4.97,4.9701,4.9701,4.9702,4.9704,4.9703,4.9702,4.9683,0,0,4.97,4.97,0,0,0,0,0,0,0,0,4.9678,4.9677,4.9682,4.9683,4.9685,4.9689,4.968,4.968,4.97,4.9694,4.9702,4.9703,4.9698,4.9698,4.9697,4.9683,4.9683,4.97,4.97,4.97,4.9699,0,0,0,0,0,0,0,4.9677,4.9677,4.9675,4.9682,4.9684,4.9688,4.9689,4.968,4.9691,4.9695,4.9696,4.9697,4.9698,4.9697,4.9697,4.9683,4.97,4.97,4.9699,4.9699,4.9655,4.9654,0,0,0,0,0,0,4.9676,4.9677,4.9674,4.9675,4.9683,4.9687,4.9689,4.9687,4.9692,4.9693,4.9696,4.9698,4.9698,4.9698,4.9697,4.9676,4.97,4.9699,4.9699,4.9656,4.9655,4.9654,0,0,0,0,0,0,4.9676,4.9676,4.9674,4.9676,4.9677,4.9687,4.9685,4.9687,4.9686,4.9693,4.9695,4.9694,4.9699,4.9698,4.9687,4.9676,4.9699,4.9698,4.9657,4.9656,4.9655,4.9632,0,0,0,0,0,0,4.9676,4.9676,4.9669,4.9676,4.9676,4.9665,4.9684,4.9686,4.9685,4.9687,4.9691,4.9692,4.9699,4.9688,4.9686,4.9676,4.9698,4.9658,4.9656,4.9655,4.9634,4.9631,4.9628,0,0,0,0,0,4.9676,4.9661,4.9669,4.9668,4.9669,4.9664,4.9664,4.9674,4.9684,4.9677,4.9682,4.9692,4.9678,4.9687,4.9685,4.9674,4.9659,4.9657,4.9655,4.9636,4.9631,4.9628,0,0,0,0,0,0,4.965,4.9662,4.9671,4.9657,4.966,4.9668,4.9659,4.9669,4.9667,4.9669,4.968,4.9681,4.9668,4.967,4.968,4.9656,4.967,4.9668,4.9656,4.9652,4.9648,4.9648,4.9697,0,0,0,0,0,4.9643,4.964,4.965,4.9637,4.9639,4.9649,4.9647,4.9655,4.9657,4.9658,4.9662,4.9662,4.9658,4.9655,4.9651,4.9635,4.9636,4.9627,4.9623,4.9621,4.9618,4.9611,4.9607,4.9648,4.9648,4.9649,0,0,4.9628,4.9634,4.9631,4.9633,4.9635,4.9631,4.9649,4.9643,4.964,4.9656,4.9647,4.965,4.9651,4.9638,4.9632,4.9639,4.9608,4.9618,4.9616,4.9616,4.9609,4.9605,4.9601,4.9647,4.9647,4.9648,0,0,4.9599,4.9603,4.9594,4.9597,4.9602,4.9609,4.9607,4.9614,4.9617,4.9608,4.9621,4.9616,4.9609,4.961,4.9609,4.9582,4.9591,4.9581,4.9563,4.9556,4.9553,4.955,4.9541,4.9537,4.9579,4.9579,4.9579,0,4.9579,4.9574,4.9587,4.9581,4.9582,4.9599,4.9589,4.9591,4.9593,4.9593,4.9601,4.9593,4.9595,4.9583,4.9577,4.9575,4.9573,4.958,4.9552,4.955,4.9547,4.9539,4.9535,4.9577,4.9577,4.9578,4.9578,0,4.955,4.9546,4.9538,4.9543,4.9542,4.9534,4.9546,4.9543,4.9552,4.9558,4.9549,4.9552,4.955,4.9548,4.9555,4.9537,4.9541,4.9551,4.9564,4.9542,4.9534,4.9531,4.9575,4.9576,4.9576,4.9577,0,0,4.9502,4.9517,4.9513,4.9516,4.9524,4.9521,4.9514,4.9514,4.9512,4.9513,4.9508,4.9502,4.9512,4.9511,4.9518,4.9512,4.9492,4.9522,4.9523,4.9517,4.9472,4.9466,4.9462,4.9498,4.9497,4.9497,4.9473,0,4.9475,4.9465,4.9478,4.9465,4.9463,4.948,4.9474,4.9477,4.9483,4.9481,4.9487,4.9483,4.9495,4.9495,4.949,4.9495,4.9483,4.9497,4.9492,4.9492,4.9492,4.9457,4.945,4.9426,4.947,4.9469,4.9469,0,4.9441,4.9444,4.9431,4.9442,4.9441,4.9435,4.9437,4.9435,4.9439,4.9444,4.9445,4.9455,4.9448,4.9462,4.9453,4.9463,4.9462,4.9464,4.9464,4.9463,4.9479,4.9456,4.9419,4.9416,4.9464,4.9464,4.9465,0,4.9409,4.9409,4.9402,4.9404,4.9415,4.9411,4.9415,4.9421,4.9421,4.9422,4.9422,4.9422,4.9422,4.9421,4.9431,4.944,4.9421,4.9435,4.9424,4.9424,4.9419,4.9419,4.9381,4.9418,4.9418,4.9418,4.9418,0,4.9376,4.9368,4.9388,4.9383,4.9375,4.939,4.9381,4.9386,4.9391,4.9388,4.9402,4.9398,4.9411,4.9409,4.9416,4.9408,4.9408,4.9411,4.9413,4.941,4.941,4.9409,4.9411,4.9417,4.9417,4.9418,4.9418,0,4.9338,4.9351,4.9345,4.9357,4.936,4.9354,4.9364,4.936,4.9368,4.9363,4.9363,4.9374,4.9372,4.9383,4.9381,4.9386,4.9375,4.9379,4.9374,4.9375,4.9364,4.9365,4.9324,4.932,4.9359,4.9359,4.9358,0,4.9317,4.9312,4.9324,4.9324,4.9329,4.9328,4.9328,4.9343,4.9343,4.9349,4.9344,4.9344,4.9344,4.934,4.9348,4.9348,4.9352,4.9338,4.9352,4.935,4.9353,4.9353,4.9353,4.9335,4.9335,4.9334,4.9334,0,4.9278,4.9286,4.9287,4.9291,4.9292,4.9296,4.93,4.9298,4.9314,4.9313,4.9313,4.9313,4.9314,4.9313,4.9315,4.9318,4.9328,4.933,4.9327,4.9324,4.9321,4.9323,4.9366,4.933,4.9331,4.9331,4.9331,4.9331,4.9248,4.9245,4.9254,4.9256,4.9261,4.9265,4.9263,4.9271,4.9272,4.9274,4.9283,4.9281,4.9286,4.929,4.9293,4.9291,4.9297,4.9294,4.9293,4.9292,4.929,4.9322,4.9291,4.9291,4.9291,4.9291,4.9291,0,4.9211,4.9218,4.922,4.9226,4.9228,4.924,4.9245,4.9245,4.9244,4.9249,4.925,4.925,4.925,4.9259,4.926,4.9257,4.9262,4.9257,4.9257,4.9258,4.9284,4.9286,4.9253,4.9253,4.9253,4.9253,4.9253,4.9253,4.9191,4.9187,4.9196,4.9194,4.9201,4.9201,4.9203,4.9207,4.9212,4.9212,4.9213,4.9219,4.9225,4.9228,4.9228,4.9231,4.923,4.9224,4.9228,4.9252,4.9256,4.9259,4.9262,4.9224,4.9224,4.9202,4.9202,4.9202]}]]